Simultaneous Nadir Overpasses (SNOs) Predictions

Prediction of SNOs between GOES-16 and METOP-C Satellite Orbit:

Table of predicted SNOs for the next 14.0 days since TLE Epoch: 10/17/2020
Index Date Time (GOES-16) GOES-16 Lat,Lon METOP-C Lat,Lon Distance(km) Time Diff (sec)
1 10/17/2020 14:25:35 -0.04, -75.19 -0.32, -73.95 141.42 80
2 10/19/2020 02:47:17 0.03, -75.17 -0.72, -78.55 384.62 80
3 10/20/2020 02:23:58 0.03, -75.17 0.40, -73.56 184.32 80
4 10/21/2020 14:45:32 -0.02, -75.19 0.60, -78.12 333.42 80
5 10/22/2020 14:22:12 -0.02, -75.19 -0.46, -73.12 235.84 80
6 10/24/2020 02:43:53 0.02, -75.18 -0.56, -77.71 289.13 80
7 10/25/2020 02:20:35 0.01, -75.18 0.56, -72.72 280.61 80
8 10/26/2020 14:42:08 -0.01, -75.22 0.46, -77.28 235.82 80
9 10/27/2020 14:18:50 -0.01, -75.23 -0.66, -72.29 334.41 80
10 10/29/2020 02:40:31 0.01, -75.23 -0.34, -76.89 188.91 80
11 10/30/2020 02:17:13 0.01, -75.24 0.79, -71.90 381.76 80
